Location: B
(0.0000°N, 0.0000°E)
Time: 21:24:06
(UTC+02:00)

Daily predictions for brighter satellites

Satellite Brightness Start Highest point End
(mag) Time Altitude Azimuth Time Altitude Azimuth Time Altitude Azimuth
ARIANE 5 DEB (SYLDA) 3.0 20:10:28 10° W 20:13:44 54° N 20:18:49 10° E
COSMOS 2455 3.8 20:09:34 10° NNW 20:15:23 54° WSW 20:21:14 10° S
YAOGAN 1 2.5 20:11:54 10° SSE 20:16:14 75° ENE 20:20:31 10° N
COSMOS 2406 3.6 20:12:31 10° S 20:17:48 40° ESE 20:23:04 10° NE
ARIANE 5 R/B 4.2 20:14:34 10° WSW 20:17:50 30° S 20:21:26 10° ESE
GPS 2-17 Rocket1 3.9 20:14:37 10° NW 20:18:31 32° NNE 20:22:27 10° E
Meteor 1-21 4.3 20:12:54 10° N 20:18:42 73° E 20:24:31 10° S
GPS 2-15 Rocket1 3.2 20:17:52 10° WNW 20:22:35 75° NNE 20:27:23 10° ESE
Cosmos 2058 Rocket 3.3 20:22:27 10° SSE 20:26:38 46° E 20:30:47 10° NNE
Cosmos 2228 3.4 20:22:40 10° SSE 20:26:49 41° E 20:30:57 10° NNE
ARIANE 5 DEB (SYLDA) 4.3 20:22:13 10° W 20:26:56 80° S 20:46:02 14° E
Cosmos 1184 Rocket 3.9 20:25:03 10° NNE 20:27:53 25° E 20:30:42 10° SE
Cosmos 1606 Rocket 3.7 20:23:41 10° S 20:28:07 80° W 20:32:29 10° N
FENGYUN 3A 4.4 20:25:44 10° SE 20:30:20 29° ENE 20:34:53 10° NNE
XTE 2.9 20:28:47 10° WSW 20:31:38 69° NNW 20:34:06 13° ENE
DELTA 2 R/B(2) 3.5 20:30:31 10° NNW 20:32:01 37° NE 20:33:04 18° ESE
Cosmos 1602 Rocket 3.9 20:29:41 10° N 20:34:06 73° W 20:38:33 10° S
Cosmos 1766 4.3 20:36:28 10° SSE 20:39:47 25° E 20:43:04 10° NE
ATLAS 2A CENTAUR R/B 3.1 20:37:54 10° S 20:40:22 20° SE 20:42:39 16° ESE
METEOR-M 4.1 20:36:42 10° SSE 20:42:04 83° ENE 20:47:25 10° N
Cosmos 1842 3.8 20:38:28 10° NNW 20:42:19 62° W 20:46:12 10° S
Cosmos 841 Rocket 4.0 20:38:07 10° SSW 20:43:15 63° WNW 20:48:20 10° N
USA 215 3.9 20:39:53 11° ENE 20:45:25 34° SE 20:51:14 10° S
GPS 2-18 Rocket1 4.4 20:43:47 10° SW 20:47:20 28° SSE 20:49:06 20° ESE
GPS 2-12 Rocket1 4.4 20:44:26 10° SW 20:48:28 27° SSE 20:50:45 19° ESE
Ariane 42L R/B 3.6 20:47:35 10° WNW 20:50:22 38° N 20:54:46 18° ENE
Cosmos 1953 Rocket 4.3 20:47:20 10° NNE 20:51:00 27° E 20:54:27 11° SE
Cosmos 2074 Rocket 4.0 20:45:04 10° S 20:51:12 59° E 20:57:17 10° NNE
SL-08 ROCKET BODY 4.4 20:45:43 10° S 20:51:35 86° W 20:57:25 10° N
Nadezhda 1 Rocket 4.5 20:45:37 10° NNW 20:51:50 65° W 20:57:58 10° S
Gbstr 26 Del rocket 4.1 20:49:17 10° S 20:52:38 24° ESE 20:53:11 24° ESE
NOAA 12 4.0 20:47:28 10° SSE 20:52:40 68° ENE 20:57:50 10° N
Cosmos 2369 Rocket 2.8 20:47:50 10° NNE 20:52:46 32° ENE 20:56:21 16° SE
Cosmos 2181 Rocket 4.2 20:49:44 10° NNE 20:55:29 43° E 21:01:14 10° SSE
ARIANE 5 R/B 1.2 20:54:36 10° WSW 20:56:26 52° S 20:56:35 50° SSE
ARIANE 5 DEB (SYLDA) 4.0 20:56:58 10° W 21:01:08 79° N 21:07:02 25° E
Stardust Del rocket 3.3 21:06:02 10° WNW 21:08:53 66° SSW 21:10:14 38° SE
Cosmos 1825 Rocket 3.5 21:06:24 10° N 21:10:51 89° E 21:15:19 10° S
Cosmos 540 Rocket 3.6 21:07:29 10° SSW 21:12:35 71° WNW 21:17:38 10° N
IUS-13 SRM-1 3.3 21:14:55 10° W 21:16:29 23° WNW 21:16:29 23° WNW
Cosmos 292 Rocket 4.4 21:13:25 10° S 21:16:54 38° SE 21:16:54 38° SE
Cosmos 1340 Rocket 2.7 21:18:34 10° N 21:22:38 82° E 21:22:57 74° SE
Cosmos 2184 Rocket 4.3 21:19:00 10° SSW 21:25:09 66° W 21:31:21 10° N
Hubble Space Telescope 3.0 21:23:45 10° WSW 21:26:33 17° SSW 21:28:01 15° S
BREEZE-M DEB (TANK) 4.5 21:17:07 10° NW 21:28:21 57° SW 21:30:32 28° SSE
ARIANE 5 R/B 3.6 21:26:02 10° W 21:27:37 24° WSW 21:27:37 24° WSW
Cosmos 1544 3.8 21:28:17 10° SSW 21:31:51 51° W 21:32:04 50° WNW
Cosmos 1610 Rocket 4.5 21:27:37 10° S 21:33:55 85° W 21:40:15 10° N
USA 234 3.1 21:32:48 33° SE 21:36:01 88° NE 21:42:34 10° NW
ATLAS 5 CENTAUR R/B 3.8 21:32:55 10° S 21:33:50 15° S 21:33:50 15° S
ALOS 4.1 21:35:54 10° SSW 21:39:59 30° WSW 21:44:04 10° NW
Ariane 44LP R/B 3.6 21:33:08 10° W 21:56:29 77° S 21:56:42 76° SSE
ARIANE 5 R/B 4.0 21:48:49 10° W 21:56:45 60° NW 21:56:45 60° NW
Cosmos 1943 Rocket 3.4 21:52:58 10° NNW 21:55:49 32° NNW 21:55:49 32° NNW
Ariane 5 R/B 4.5 21:58:22 10° WNW 22:01:06 41° WNW 22:01:06 41° WNW
Meteor 2-5 Rocket 4.2 21:57:19 10° NNW 22:02:54 57° W 22:03:01 57° W
Lacrosse 5 4.4 22:08:03 10° NNW 22:08:33 13° NNW 22:08:33 13° NNW
ARIANE 5 R/B 4.4 13:52:38 10° W 22:25:16 69° SW 22:25:16 69° SW
USA 215 4.4 22:27:19 34° NW 22:28:10 36° NW 22:34:02 10° WSW
